GW5156 Weather Reports


time (UTC)temp
C
wind
direction
speed
KPH
gust
KPH
rain 1hr
cm
rain 24hr
cm
rain mn
cm
humidity
%
barometer
mb
20260906065655 23 13 4.8 6.4 0.00 0.00 0.61 90 1014.0
20260906065156 23 80 3.2 4.8 0.00 0.00 0.61 90 1014.0
20260906064655 24 46 1.6 3.2 0.00 0.00 0.61 89 1014.0
20260906064155 24 14 1.6 3.2 0.00 0.00 0.61 86 1014.0
20260906063655 24 239 3.2 6.4 0.00 0.00 0.61 86 1014.0
20260906063156 24 260 0.0 3.2 0.00 0.00 0.61 87 1014.0
20260906062655 24 34 3.2 4.8 0.00 0.00 0.61 86 1014.0
20260906062155 24 88 6.4 8.0 0.00 0.00 0.61 85 1014.0
20260906061655 24 44 1.6 3.2 0.00 0.00 0.61 86 1014.0
20260906061155 24 205 1.6 3.2 0.00 0.00 0.61 83 1014.0
20260906060655 24 359 3.2 9.7 0.00 0.00 0.61 82 1014.0
20260906060155 24 286 3.2 4.8 0.00 0.00 0.61 85 1013.0
20260906055655 24 306 1.6 4.8 0.00 0.00 0.61 85 1013.0
20260906055155 24 346 3.2 4.8 0.00 0.00 0.61 83 1013.0
20260906054655 25 52 3.2 6.4 0.00 0.00 0.33 81 1013.0
20260906054156 25 57 4.8 9.7 0.10 0.00 0.33 81 1013.0
20260906053655 25 82 9.7 16.1 0.05 0.00 0.33 80 1013.0
20260906053155 25 89 14.5 20.9 0.66 0.00 0.03 80 1013.0
20260906052655 26 77 20.9 32.2 0.00 0.00 0.00 76 1014.0
20260906052155 26 77 12.9 17.7 0.00 0.00 0.00 75 1013.0
20260906051655 27 97 14.5 24.1 0.05 0.00 0.00 73 1014.0
20260906051155 27 90 12.9 24.1 0.00 0.00 0.00 71 1013.0
20260906050657 26 49 6.4 14.5 0.00 0.00 0.00 76 1013.0
20260906050155 26 26 1.6 3.2 0.00 0.00 0.00 79 1013.0
20260906045655 26 69 0.0 1.6 0.00 0.00 0.00 78 1013.0
20260906045155 26 340 0.0 0.0 0.00 0.00 0.00 78 1013.0
20260906044655 26 172 0.0 1.6 0.00 0.00 0.00 77 1013.0
20260906044156 26 44 0.0 3.2 0.00 0.00 0.00 77 1013.0
20260906043655 26 213 0.0 1.6 0.00 0.00 0.00 77 1013.0
20260906043155 26 45 0.0 1.6 0.00 0.00 0.00 77 1013.0
20260906042655 26 64 0.0 1.6 0.00 0.00 0.00 77 1013.0
20260906042156 26 332 1.6 1.6 0.00 0.00 0.00 77 1013.0
20260906041655 26 112 0.0 1.6 0.00 0.00 0.00 77 1013.0
20260906041155 26 88 3.2 4.8 0.00 0.00 0.00 78 1013.0
20260906040656 26 48 0.0 1.6 0.00 0.00 0.00 78 1013.0
20260906040155 26 35 0.0 0.0 0.00 0.00 0.00 76 1013.0
20260906035655 26 24 0.0 1.6 0.00 0.00 0.00 77 1014.0
20260906035155 26 291 0.0 1.6 0.00 0.00 0.00 77 1014.0
20260906034655 26 46 0.0 1.6 0.00 0.00 0.00 76 1014.0
20260906034155 26 37 0.0 0.0 0.00 0.00 0.00 76 1013.0
20260906033655 26 284 0.0 1.6 0.00 0.00 0.00 76 1013.0
20260906033156 27 352 0.0 1.6 0.00 0.00 0.00 76 1013.0
20260906032655 27 37 0.0 1.6 0.00 0.00 0.00 74 1013.0
20260906032155 27 65 0.0 1.6 0.00 0.00 0.00 74 1013.0
20260906031656 27 77 1.6 3.2 0.00 0.00 0.00 74 1013.0
20260906031155 27 303 0.0 1.6 0.00 0.00 0.00 73 1013.0
20260906030655 27 350 0.0 1.6 0.00 0.00 0.00 74 1013.0
20260906030155 27 329 0.0 1.6 0.00 0.00 0.00 74 1013.0
20260906025655 27 246 0.0 0.0 0.00 0.00 0.00 72 1013.0
20260906025155 27 176 1.6 3.2 0.00 0.00 0.00 73 1013.0
20260906024655 28 37 1.6 3.2 0.00 0.00 0.00 72 1013.0
20260906024155 28 360 0.0 0.0 0.00 0.00 0.00 71 1013.0
20260906023656 28 253 0.0 1.6 0.00 0.00 0.00 70 1013.0
20260906023155 28 105 1.6 3.2 0.00 0.00 0.00 68 1013.0
20260906022655 28 253 3.2 4.8 0.00 0.00 0.00 66 1013.0
20260906022155 28 320 1.6 3.2 0.00 0.00 0.00 66 1013.0
20260906021655 28 313 1.6 3.2 0.00 0.00 0.00 67 1013.0
20260906021155 28 316 1.6 4.8 0.00 0.00 0.00 67 1013.0
20260906020655 28 265 1.6 3.2 0.00 0.00 0.00 69 1013.0
20260906020155 28 11 3.2 3.2 0.00 0.00 0.00 70 1013.0
20260906015655 28 314 3.2 4.8 0.00 0.00 0.00 69 1013.0
20260906015155 28 1 3.2 4.8 0.00 0.00 0.00 70 1012.0
20260906014655 28 173 0.0 1.6 0.00 0.00 0.00 72 1012.0
20260906014155 28 273 0.0 0.0 0.00 0.00 0.00 72 1012.0
20260906013655 28 338 0.0 1.6 0.00 0.00 0.00 72 1012.0
20260906013155 28 42 1.6 3.2 0.00 0.00 0.00 72 1012.0
20260906012655 28 266 0.0 0.0 0.00 0.00 0.00 72 1012.0
20260906012155 28 21 0.0 1.6 0.00 0.00 0.00 71 1012.0
20260906011655 28 5 0.0 1.6 0.00 0.00 0.00 70 1012.0
20260906011155 28 324 0.0 1.6 0.00 0.00 0.00 70 1012.0
20260906010655 28 66 0.0 3.2 0.00 0.00 0.00 70 1012.0
20260906010155 28 4 0.0 1.6 0.00 0.00 0.00 69 1012.0
20260906005655 28 6 0.0 1.6 0.00 0.00 0.00 68 1012.0
20260906005155 29 300 1.6 1.6 0.00 0.00 0.00 67 1012.0
20260906004655 29 336 0.0 1.6 0.00 0.00 0.00 66 1012.0
20260906004155 29 18 0.0 1.6 0.00 0.00 0.00 66 1012.0
20260906003655 29 267 3.2 3.2 0.00 0.00 0.00 66 1012.0
20260906003155 29 279 3.2 4.8 0.00 0.00 0.00 67 1012.0
20260906002656 29 305 1.6 3.2 0.00 0.00 0.00 66 1012.0
20260906002156 29 279 0.0 1.6 0.00 0.00 0.00 67 1012.0
20260906001655 29 219 1.6 4.8 0.00 0.00 0.00 67 1012.0
20260906001155 30 265 4.8 9.7 0.00 0.00 0.00 66 1012.0
20260906000655 30 234 4.8 6.4 0.00 0.00 0.00 65 1012.0
20260906000156 30 226 6.4 9.7 0.00 0.00 0.00 64 1013.0
20260905235655 31 236 8.0 12.9 0.00 0.00 0.00 62 1013.0
20260905235155 31 259 6.4 11.3 0.00 0.00 0.00 59 1013.0
20260905234655 32 163 6.4 14.5 0.00 0.00 0.00 58 1012.0
20260905234155 33 105 6.4 9.7 0.00 0.00 0.00 54 1012.0
20260905233655 33 80 4.8 9.7 0.00 0.00 0.00 53 1012.0
20260905233155 33 22 4.8 9.7 0.00 0.00 0.00 54 1012.0
20260905232655 34 29 1.6 4.8 0.00 0.00 0.00 54 1012.0
20260905232155 34 70 4.8 11.3 0.00 0.00 0.00 53 1012.0
20260905231655 35 48 1.6 4.8 0.00 0.00 0.00 52 1012.0
20260905231155 35 29 3.2 6.4 0.00 0.00 0.00 51 1012.0
20260905230655 35 82 6.4 11.3 0.00 0.00 0.00 49 1012.0
20260905230155 36 60 4.8 9.7 0.00 0.00 0.00 49 1012.0
20260905225655 37 20 1.6 3.2 0.00 0.00 0.00 50 1011.0
20260905225155 37 310 1.6 3.2 0.00 0.00 0.00 46 1011.0
20260905224655 36 310 1.6 3.2 0.00 0.00 0.00 46 1011.0
20260905224155 37 330 1.6 3.2 0.00 0.00 0.00 45 1011.0
20260905223655 37 321 1.6 3.2 0.00 0.00 0.00 45 1011.0
20260905223155 37 9 3.2 6.4 0.00 0.00 0.00 44 1011.0
20260905222655 37 353 4.8 6.4 0.00 0.00 0.00 43 1011.0
20260905222156 37 330 3.2 4.8 0.00 0.00 0.00 44 1011.0
20260905221655 37 333 4.8 6.4 0.00 0.00 0.00 42 1011.0
20260905221155 38 344 3.2 6.4 0.00 0.00 0.00 42 1011.0
20260905220655 37 292 1.6 4.8 0.00 0.00 0.00 44 1011.0
20260905220155 37 309 1.6 4.8 0.00 0.00 0.00 43 1011.0
20260905215655 37 149 1.6 3.2 0.00 0.00 0.00 43 1011.0
20260905215155 37 147 1.6 3.2 0.00 0.00 0.00 43 1012.0
20260905214656 37 335 3.2 6.4 0.00 0.00 0.00 42 1012.0
20260905214155 37 181 3.2 3.2 0.00 0.00 0.00 42 1012.0
20260905213655 37 151 0.0 4.8 0.00 0.00 0.00 42 1012.0
20260905213155 37 270 3.2 6.4 0.00 0.00 0.00 43 1012.0
20260905212655 37 164 1.6 4.8 0.00 0.00 0.00 43 1012.0
20260905212155 37 329 3.2 6.4 0.00 0.00 0.00 42 1012.0
20260905211655 38 97 1.6 6.4 0.00 0.00 0.00 42 1012.0
20260905211155 38 310 1.6 3.2 0.00 0.00 0.00 41 1012.0
20260905210655 38 297 1.6 3.2 0.00 0.00 0.00 41 1012.0
20260905210155 38 331 1.6 3.2 0.00 0.00 0.00 41 1012.0
20260905205655 38 357 3.2 4.8 0.00 0.00 0.00 41 1012.0
20260905205157 38 245 3.2 8.0 0.00 0.00 0.00 42 1012.0
20260905204656 38 349 1.6 4.8 0.00 0.00 0.00 42 1012.0
20260905204155 38 220 1.6 6.4 0.00 0.00 0.00 41 1012.0
20260905203656 38 242 3.2 6.4 0.00 0.00 0.00 40 1012.0
20260905203155 37 183 1.6 3.2 0.00 0.00 0.00 42 1012.0
20260905202655 37 75 4.8 9.7 0.00 0.00 0.00 43 1012.0
20260905202156 37 222 3.2 4.8 0.00 0.00 0.00 42 1012.0
20260905201655 37 310 1.6 3.2 0.00 0.00 0.00 44 1012.0
20260905201156 37 8 3.2 8.0 0.00 0.00 0.00 42 1012.0
20260905200655 37 64 4.8 9.7 0.00 0.00 0.00 44 1012.0
20260905200155 37 243 6.4 11.3 0.00 0.00 0.00 45 1012.0
20260905195655 37 142 4.8 8.0 0.00 0.00 0.00 44 1012.0
20260905195155 37 69 3.2 8.0 0.00 0.00 0.00 43 1013.0
20260905194655 37 56 1.6 4.8 0.00 0.00 0.00 43 1013.0
20260905194156 37 14 1.6 4.8 0.00 0.00 0.00 45 1013.0
20260905193655 38 94 4.8 6.4 0.00 0.00 0.00 43 1013.0
20260905193155 38 138 1.6 3.2 0.00 0.00 0.00 42 1013.0
20260905192655 37 334 1.6 4.8 0.00 0.00 0.00 43 1013.0
20260905192155 37 233 3.2 6.4 0.00 0.00 0.00 44 1013.0
20260905191656 37 349 1.6 3.2 0.00 0.00 0.00 44 1013.0
20260905191155 37 328 1.6 6.4 0.00 0.00 0.00 45 1013.0
20260905190655 37 287 1.6 4.8 0.00 0.00 0.00 46 1013.0
20260905190159 37 95 4.8 8.0 0.00 0.00 0.00 44 1013.0
20260905185656 37 14 3.2 6.4 0.00 0.00 0.00 43 1013.0
20260905185155 36 7 3.2 4.8 0.00 0.00 0.00 45 1013.0
20260905184655 36 108 1.6 3.2 0.00 0.00 0.00 46 1014.0
20260905184155 37 245 4.8 9.7 0.00 0.00 0.00 46 1014.0
20260905183655 37 292 3.2 6.4 0.00 0.00 0.00 43 1014.0
20260905183155 37 360 3.2 8.0 0.00 0.00 0.00 44 1014.0
20260905182656 36 63 3.2 8.0 0.00 0.00 0.00 47 1014.0
20260905182155 37 218 3.2 4.8 0.00 0.00 0.00 49 1014.0
20260905181655 37 207 1.6 4.8 0.00 0.00 0.00 47 1014.0
20260905181155 37 302 3.2 4.8 0.00 0.00 0.00 48 1014.0
20260905180655 37 329 4.8 8.0 0.00 0.00 0.00 49 1014.0
20260905180156 36 247 4.8 9.7 0.00 0.00 0.00 51 1014.0
20260905175656 36 328 3.2 6.4 0.00 0.00 0.00 50 1014.0
20260905175155 35 82 1.6 3.2 0.00 0.00 0.00 52 1014.0
20260905174655 35 190 1.6 3.2 0.00 0.00 0.00 52 1014.0
20260905174156 35 84 9.7 14.5 0.00 0.00 0.00 51 1014.0
20260905173655 36 255 3.2 4.8 0.00 0.00 0.00 53 1014.0
20260905173156 36 274 3.2 6.4 0.00 0.00 0.00 51 1014.0
20260905172655 36 247 3.2 4.8 0.00 0.00 0.00 51 1014.0
20260905172157 35 174 3.2 3.2 0.00 0.00 0.00 53 1014.0
20260905171655 35 15 3.2 6.4 0.00 0.00 0.00 54 1014.0
20260905171156 35 122 6.4 9.7 0.00 0.00 0.00 53 1015.0
20260905170655 36 114 3.2 4.8 0.00 0.00 0.00 50 1015.0
20260905165708 35 276 1.6 3.2 0.00 0.00 0.00 53 1015.0
20260905165155 35 66 3.2 4.8 0.00 0.00 0.00 55 1015.0
20260905164656 35 270 3.2 8.0 0.00 0.00 0.00 54 1015.0
20260905164155 34 349 3.2 4.8 0.00 0.00 0.00 55 1015.0
20260905163656 34 243 8.0 12.9 0.00 0.00 0.00 56 1015.0
20260905163155 35 210 3.2 4.8 0.00 0.00 0.00 54 1015.0
20260905162655 35 8 6.4 9.7 0.00 0.00 0.00 54 1015.0
20260905162155 35 204 1.6 6.4 0.00 0.00 0.00 56 1015.0
20260905161655 34 30 3.2 6.4 0.00 0.00 0.00 56 1015.0
20260905161156 33 303 1.6 8.0 0.00 0.00 0.00 59 1015.0
20260905160656 33 222 4.8 8.0 0.00 0.00 0.00 58 1015.0
20260905160155 34 187 1.6 3.2 0.00 0.00 0.00 57 1015.0
20260905155656 34 6 3.2 6.4 0.00 0.00 0.00 56 1015.0
20260905155155 34 223 3.2 8.0 0.00 0.00 0.00 57 1015.0
20260905154655 33 221 0.0 3.2 0.00 0.00 0.00 56 1015.0
20260905154156 33 310 1.6 4.8 0.00 0.00 0.00 59 1015.0
20260905153655 32 24 3.2 4.8 0.00 0.00 0.00 61 1015.0
20260905153155 32 78 6.4 9.7 0.00 0.00 0.00 60 1015.0
20260905152655 32 95 4.8 8.0 0.00 0.00 0.00 61 1015.0
20260905152155 32 154 3.2 4.8 0.00 0.00 0.00 65 1015.0
20260905151729 32 130 1.6 4.8 0.00 0.00 0.00 65 1015.0
20260905151155 32 150 3.2 4.8 0.00 0.00 0.00 66 1015.0
20260905150655 32 240 4.8 6.4 0.00 0.00 0.00 67 1015.0
20260905150155 32 202 3.2 6.4 0.00 0.00 0.00 65 1015.0
20260905145655 31 85 3.2 6.4 0.00 0.00 0.00 68 1015.0
20260905145156 31 95 1.6 6.4 0.00 0.00 0.00 69 1015.0
20260905144656 30 101 6.4 8.0 0.00 0.00 0.00 69 1015.0
20260905144155 30 111 4.8 6.4 0.00 0.00 0.00 70 1016.0
20260905143656 30 210 4.8 9.7 0.00 0.00 0.00 71 1016.0
20260905143155 30 150 3.2 4.8 0.00 0.00 0.00 72 1016.0
20260905142655 30 217 6.4 11.3 0.00 0.00 0.00 73 1016.0
20260905142155 30 178 0.0 3.2 0.00 0.00 0.00 73 1016.0
20260905141655 30 189 3.2 6.4 0.00 0.00 0.00 73 1016.0
20260905141155 30 216 1.6 3.2 0.00 0.00 0.00 74 1016.0
20260905140656 29 150 1.6 3.2 0.00 0.00 0.00 73 1016.0
20260905140155 29 162 3.2 4.8 0.00 0.00 0.00 74 1016.0
20260905135657 29 113 6.4 8.0 0.00 0.00 0.00 76 1016.0
20260905135156 29 204 3.2 6.4 0.00 0.00 0.00 76 1016.0
20260905134656 29 47 0.0 3.2 0.00 0.00 0.00 73 1016.0
20260905134155 28 284 0.0 1.6 0.00 0.00 0.00 76 1016.0
20260905133656 27 101 1.6 3.2 0.00 0.00 0.00 80 1016.0
20260905133155 27 213 3.2 4.8 0.00 0.00 0.00 81 1016.0
20260905132655 27 121 3.2 4.8 0.00 0.00 0.00 81 1016.0
20260905132155 27 215 3.2 6.4 0.00 0.00 0.00 80 1016.0
20260905131655 27 205 3.2 4.8 0.00 0.00 0.00 82 1016.0
20260905131155 27 204 3.2 4.8 0.00 0.00 0.00 82 1016.0
20260905130655 27 310 0.0 1.6 0.00 0.00 0.00 82 1016.0
20260905130155 26 148 0.0 1.6 0.00 0.00 0.00 85 1016.0
20260905125655 26 131 1.6 3.2 0.00 0.00 0.00 86 1016.0
20260905125204 26 221 1.6 3.2 0.00 0.00 0.00 86 1016.0
20260905124655 26 127 1.6 4.8 0.00 0.00 0.00 87 1016.0
20260905124155 26 138 1.6 3.2 0.00 0.00 0.00 87 1016.0
20260905123655 26 138 1.6 3.2 0.00 0.00 0.00 86 1016.0
20260905123156 25 88 1.6 3.2 0.00 0.00 0.00 86 1016.0
20260905122655 25 143 0.0 1.6 0.00 0.00 0.00 87 1016.0
20260905122155 25 345 0.0 0.0 0.00 0.00 0.00 91 1016.0
20260905121655 24 9 0.0 1.6 0.00 0.00 0.00 92 1016.0
20260905121156 23 86 0.0 1.6 0.00 0.00 0.00 94 1016.0
20260905120655 23 360 0.0 0.0 0.00 0.00 0.00 95 1016.0
20260905120155 23 11 0.0 0.0 0.00 0.00 0.00 95 1016.0
20260905115655 23 90 0.0 1.6 0.00 0.00 0.00 95 1016.0
20260905115155 23 306 0.0 0.0 0.00 0.00 0.00 95 1016.0
20260905114655 23 260 1.6 1.6 0.00 0.00 0.00 95 1016.0
20260905114155 23 215 1.6 3.2 0.00 0.00 0.00 95 1016.0
20260905113655 23 268 0.0 0.0 0.00 0.00 0.00 95 1015.0
20260905113201 23 48 0.0 0.0 0.00 0.00 0.00 95 1015.0
20260905112655 23 264 0.0 1.6 0.00 0.00 0.00 95 1015.0
20260905112155 23 289 0.0 1.6 0.00 0.00 0.00 95 1015.0
20260905111655 23 360 0.0 0.0 0.00 0.00 0.00 95 1015.0
20260905111156 23 360 0.0 0.0 0.00 0.00 0.00 95 1015.0
20260905110656 23 44 0.0 0.0 0.00 0.00 0.00 95 1015.0
20260905110156 23 30 0.0 1.6 0.00 0.00 0.00 95 1015.0
20260905105655 23 360 0.0 0.0 0.00 0.00 0.00 94 1015.0
20260905105155 23 217 0.0 1.6 0.00 0.00 0.00 94 1015.0
20260905104655 23 360 0.0 0.0 0.00 0.00 0.00 94 1015.0
20260905104155 23 12 0.0 1.6 0.00 0.00 0.00 94 1015.0
20260905103655 23 230 0.0 1.6 0.00 0.00 0.00 94 1015.0
20260905103155 23 360 0.0 0.0 0.00 0.00 0.00 94 1015.0
20260905102656 23 227 0.0 0.0 0.00 0.00 0.00 94 1015.0
20260905102155 23 68 0.0 1.6 0.00 0.00 0.00 94 1015.0
20260905101655 23 360 0.0 0.0 0.00 0.00 0.00 94 1015.0
20260905101155 23 360 0.0 0.0 0.00 0.00 0.00 94 1015.0
20260905100655 23 9 0.0 1.6 0.00 0.00 0.00 94 1015.0
20260905100155 23 360 0.0 0.0 0.00 0.00 0.00 94 1015.0
20260905095655 23 25 1.6 3.2 0.00 0.00 0.00 94 1015.0
20260905095155 23 164 0.0 0.0 0.00 0.00 0.00 93 1015.0
20260905094656 23 277 0.0 0.0 0.00 0.00 0.00 93 1015.0
20260905094155 23 360 0.0 0.0 0.00 0.00 0.00 93 1015.0
20260905093655 23 217 3.2 3.2 0.00 0.00 0.00 93 1015.0
20260905093155 23 360 0.0 0.0 0.00 0.00 0.00 93 1015.0
20260905092655 23 292 0.0 1.6 0.00 0.00 0.00 93 1015.0
20260905092155 23 229 0.0 0.0 0.00 0.00 0.00 93 1015.0
20260905091655 23 360 0.0 0.0 0.00 0.00 0.00 93 1014.0
20260905091155 23 360 0.0 0.0 0.00 0.00 0.00 92 1014.0
20260905090657 23 360 0.0 0.0 0.00 0.00 0.00 92 1014.0
20260905090155 23 55 0.0 1.6 0.00 0.00 0.00 92 1014.0
20260905085655 23 203 0.0 1.6 0.00 0.00 0.00 92 1014.0
20260905085155 23 65 0.0 1.6 0.00 0.00 0.00 92 1015.0
20260905084655 23 5 0.0 3.2 0.00 0.00 0.00 92 1015.0
20260905084155 23 36 0.0 1.6 0.00 0.00 0.00 91 1015.0
20260905083655 24 238 0.0 3.2 0.00 0.00 0.00 91 1014.0
20260905083155 24 210 0.0 1.6 0.00 0.00 0.00 91 1014.0
20260905082655 24 36 0.0 1.6 0.00 0.00 0.00 91 1014.0
20260905082155 24 311 1.6 3.2 0.00 0.00 0.00 91 1014.0
20260905081655 24 224 0.0 3.2 0.00 0.00 0.00 91 1014.0
20260905081155 24 229 0.0 3.2 0.00 0.00 0.00 91 1014.0
20260905080655 24 63 0.0 1.6 0.00 0.00 0.00 91 1014.0
20260905080155 24 332 0.0 1.6 0.00 0.00 0.00 91 1014.0
20260905075655 24 29 0.0 0.0 0.00 0.00 0.00 91 1014.0
20260905075155 24 49 0.0 1.6 0.00 0.00 0.00 91 1014.0
20260905074655 24 344 0.0 1.6 0.00 0.00 0.00 90 1014.0
20260905074155 24 263 0.0 1.6 0.00 0.00 0.00 90 1014.0
20260905073656 24 85 0.0 1.6 0.00 0.00 0.00 90 1014.0
20260905073155 24 156 0.0 1.6 0.00 0.00 0.00 90 1014.0
20260905072656 24 283 0.0 1.6 0.00 0.00 0.00 89 1014.0
20260905072156 24 316 1.6 1.6 0.00 0.00 0.00 89 1014.0
20260905071656 25 240 0.0 1.6 0.00 0.00 0.00 89 1014.0
20260905071157 25 360 0.0 0.0 0.00 0.00 0.00 89 1014.0
20260905070656 25 251 0.0 1.6 0.00 0.00 0.00 89 1014.0
20260905070155 25 354 0.0 1.6 0.00 0.00 0.00 89 1014.0